This is the latest recevied weather packets stored in our database for station/object DO1YM-13. If no packets are shown the sender has not sent any weather packets the latest 10 day(s).
| Time | Temp. | Humidity | Pressure | Rain* | Wind** | Luminosity | Snow |
|---|---|---|---|---|---|---|---|
| 1787567148 | 18.89° C | 69% | 1019 hPa | 0 mm | - | 223 W/m² | - |
| 1787566850 | 18.89° C | 68% | 1018.6 hPa | 0 mm | - | 623 W/m² | - |
| 1787566548 | 18.89° C | 70% | 1018.6 hPa | 0 mm | - | 787 W/m² | - |
| 1787566248 | 18.33° C | 70% | 1018.6 hPa | 0 mm | - | 181 W/m² | - |
| 1787565947 | 17.78° C | 71% | 1018.6 hPa | 0 mm | - | 292 W/m² | - |
| 1787565648 | 17.78° C | 72% | 1019 hPa | 0 mm | - | 159 W/m² | - |
| 1787565348 | 18.33° C | 70% | 1018.6 hPa | 0 mm | - | 277 W/m² | - |
| 1787565051 | 17.78° C | 72% | 1019 hPa | 0 mm | - | 411 W/m² | - |
| 1787564748 | 17.22° C | 75% | 1019 hPa | 0 mm | - | 544 W/m² | - |
| 1787564447 | 17.22° C | 75% | 1019 hPa | 0 mm | - | 290 W/m² | - |
| 1787564147 | 16.67° C | 75% | 1019 hPa | 0 mm | - | 268 W/m² | - |
| 1787563847 | 16.67° C | 77% | 1019 hPa | 0 mm | - | 183 W/m² | - |
| 1787563547 | 16.67° C | 77% | 1019 hPa | 0 mm | - | 122 W/m² | - |
| 1787563248 | 17.22° C | 76% | 1019 hPa | 0 mm | - | 120 W/m² | - |
| 1787562950 | 17.22° C | 77% | 1019 hPa | 0 mm | - | 160 W/m² | - |
| 1787562648 | 17.22° C | 76% | 1019 hPa | 0 mm | - | 143 W/m² | - |
| 1787562351 | 17.22° C | 75% | 1018.6 hPa | 0 mm | - | 196 W/m² | - |
| 1787562048 | 17.22° C | 74% | 1019 hPa | 0 mm | - | 234 W/m² | - |
| 1787561747 | 16.67° C | 76% | 1019 hPa | 0 mm | - | 293 W/m² | - |
| 1787561447 | 16.67° C | 77% | 1018.6 hPa | 0 mm | - | 203 W/m² | - |
| 1787561148 | 16.67° C | 78% | 1018.6 hPa | 0 mm | - | 204 W/m² | - |
| 1787560848 | 16.67° C | 77% | 1019 hPa | 0 mm | - | 235 W/m² | - |
| 1787560548 | 16.11° C | 78% | 1019 hPa | 0 mm | - | 198 W/m² | - |
| 1787560248 | 16.11° C | 78% | 1019 hPa | 0 mm | - | 156 W/m² | - |
| 1787559948 | 16.11° C | 78% | 1019 hPa | 0 mm | - | 232 W/m² | - |
* Rain latest hour (hover to see other rain measurements)
** Current wind speed in m/s (hover to see current wind gust speed)